Regional Weather Roundup
Issued by NWS

Home | Current Version | Previous Version | Graphics & Text | Print | Product List | Glossary Off
Versions: 1 2 3 4 5 6 7 8 9 10 11 12 13 14 15 16 17 18 19 20 21 22 23 24 25 26 27 28 29 30 31 32 33 34 35 36 37 38 39 40 41 42 43 44 45 46 47 48 49 50

000
ASUS43 KMPX 021710
RWRMN
WEATHER ROUNDUP FOR MINNESOTA
NATIONAL WEATHER SERVICE TWIN CITIES/CHANHASSEN MN
1200 PM CDT SUN AUG 02 2015


NOTE: "FAIR" INDICATES FEW OR NO CLOUDS BELOW 12,000 FEET WITH NO
SIGNIFICANT WEATHER AND/OR OBSTRUCTIONS TO VISIBILITY. N/A MEANS
CURRENT SKY AND/OR WEATHER CONDITIONS ARE NOT AVAILABLE.

MNZ060>063-068>070-021800-
   Twin Cities Metro

CITY           SKY/WX    TMP DP  RH WIND       PRES   REMARKS
TWIN CITIES    MOSUNNY   83  65  54 W16G23    29.63R
ST PAUL        MOSUNNY   83  65  54 NW18G26   29.65R
CRYSTAL        PTSUNNY   81  65  58 W16       29.65R
LAKEVILLE      SUNNY     81  64  57 W15G26    29.63S
EDEN PRAIRIE   SUNNY     82  65  56 W20G28    29.64R
SOUTH ST PAUL  MOSUNNY   82  64  54 W17G28    29.62R
LAKE ELMO      FAIR      81  68  65 W14G20    29.65R
$$
MNZ001>005-007-008-013>017-022>024-027-028-021800-
   Northwest Minnesota

CITY           SKY/WX    TMP DP  RH WIND       PRES   REMARKS
BEMIDJI        PTSUNNY   71  55  56 NW18G24   29.75S
HALLOCK        MOSUNNY   72  48  43 NW14G22   29.80S
ROSEAU         SUNNY     70  48  46 NW16G25   29.76S
WARROAD        SUNNY     70  48  46 NW16G24   29.75S
THIEF RVR FALL PTSUNNY   72  50  46 NW16      29.80R
CROOKSTON      MOSUNNY   72  52  49 N15G23    29.81S
FOSSTON        MOSUNNY   73  52  46 NW15G22   29.79R
DETROIT LAKES  MOSUNNY   72  57  60 N12G24    29.81R
MOORHEAD       SUNNY     73  57  56 NW15G22   29.82R
PARK RAPIDS    MOSUNNY   76  57  51 NW20G28   29.75R
MAHNOMEN       FAIR      71  58  62 NW15      29.79R
$$
MNZ006-009>011-018-025>026-021800-
   North Central Minnesota

CITY           SKY/WX    TMP DP  RH WIND       PRES   REMARKS
BAUDETTE       MOSUNNY   70  51  51 NW16G25   29.73R
FLAG ISLAND    MOSUNNY   70  43  37 NW21      29.71S
INTL FALLS     MOSUNNY   70  51  51 NW14G26   29.68R
WASKISH        PTSUNNY   70  57  64 NW13G18   29.73R
BIG FORK       MOSUNNY   72  55  56 NW9       29.70S
LONGVILLE      MOSUNNY   73  61  64 W10G18    29.72S
GRAND RAPIDS   MOSUNNY   72  57  60 NW15      29.70F
CRANE LAKE     SUNNY     68  54  60 NW7       29.68R
ORR            PTSUNNY   70  52  52 NW8       29.66R
COOK           MOSUNNY   72  55  56 NW9       29.68S
WALKER         PTSUNNY   71  55  56 NW17G23   29.74R
$$
MNZ012-019>021-037-021800-
   Northeast Minnesota

CITY           SKY/WX    TMP DP  RH WIND       PRES   REMARKS
DULUTH         LGT RAIN  67  60  78 NW12      29.66R
ELY            PTSUNNY   68  54  60 NW13G20   29.66R
HIBBING        PTSUNNY   71  58  63 NW12      29.68S
EVELETH        MOSUNNY   72  57  60 N10G18    29.67S
DULUTH HARBOR  PTSUNNY   72  61  68 NW9G16    29.64F
TWO HARBORS    CLOUDY    68  63  83 NW3       29.62R
SILVER BAY     CLOUDY    68  63  83 CALM      29.61F
GRAND MARAIS     N/A     58  52  80 SW9       29.58R
G MARAIS ARPRT MOSUNNY   70  50  49 W10       29.63S
$$
MNZ029>031-032-039>041-046>048-054>057-064-021800-
   West Central Minnesota

CITY           SKY/WX    TMP DP  RH WIND       PRES   REMARKS
FERGUS FALLS   MOSUNNY   73  61  64 N13G23    29.78R
WHEATON        SUNNY     73  61  64 NW14G21   29.82R
MORRIS         SUNNY     79  64  61 NW17G23   29.77R
ALEXANDRIA     SUNNY     77  61  57 NW14G23   29.77R
ELBOW LAKE     FAIR      73  61  68 NW16      29.78R
WADENA         MOSUNNY   75  61  60 NW15      29.75R
GLENWOOD       SUNNY     79  61  53 NW12      29.76R
APPLETON       SUNNY     81  61  50 NW17G24   29.77R
BENSON         SUNNY     81  63  54 N15       29.75R
ORTONVILLE     SUNNY     77  63  61 N15G21    29.79R
MADISON        SUNNY     79  63  57 N18       29.78R
WILLMAR        FAIR      82  66  57 NW16G23   29.74R
$$
MNZ033>034-036-042>043-049>051-058-059-021800-
   Central Minnesota

CITY           SKY/WX    TMP DP  RH WIND       PRES   REMARKS
ST CLOUD       MOSUNNY   77  65  66 N10G17    29.70R
SAUK CENTRE    FAIR      77  61  58 NW15      29.74R
PAYNESVILLE    MOSUNNY   76  66  71 W13       29.72R
AITKIN         PTSUNNY   75  59  57 NW6G18    29.69R
PINE RIVER     PTSUNNY   73  59  60 NW12G17   29.76R
BRAINERD       PTSUNNY   77  58  51 N15G22    29.71S
STAPLES        MOSUNNY   75  57  53 NW13G18   29.73R
LONG PRAIRIE   FAIR      73  61  64 NW13      29.74R
LITTLE FALLS   SUNNY     77  55  47 NW12G18   29.71R
LITCHFIELD     SUNNY     81  72  74 NW16      29.70R
BUFFALO        PTSUNNY   78  65  63 W13G18    29.69R
MAPLE LAKE     MOSUNNY   79  70  73 NW13G22   29.69R
$$
MNZ037-044-045-052-053-021800-
   East Central Minnesota

CITY           SKY/WX    TMP DP  RH WIND       PRES   REMARKS
PRINCETON      MOSUNNY   73  70  88 NW8       29.69R
MORA           PTSUNNY   75  55  50 NW9       29.70R
CAMBRIDGE      LGT RAIN  73  64  73 NW6       29.67R
RUSH CITY      CLOUDY    73  64  74 NW6       29.68R
MOOSE LAKE     PTSUNNY   73  57  56 NW6       29.66R
HINCKLEY       CLOUDY    73  59  60 N5        29.68R
CLOQUET        PTSUNNY   72  57  60 W13       29.67S
MCGREGOR       PTSUNNY   73  57  56 NW13      29.69R
$$
MNZ071>073-080-081-089-090-097-098-021800-
   Southwest Minnesota

CITY           SKY/WX    TMP DP  RH WIND       PRES   REMARKS
MONTEVIDEO     SUNNY     82  68  61 N16       29.78R
GRANITE FALLS  SUNNY     79  67  68 NW14      29.77R
CANBY          SUNNY     78  67  69 N12G20    29.80R
MARSHALL       SUNNY     79  64  61 N14G22    29.79R
REDWOOD FALLS  SUNNY     82  66  58 NW14G22   29.73R
OLIVIA         SUNNY     77  64  65 W15       29.72R
PIPESTONE      SUNNY     81  64  57 N10G16    29.82R
WINDOM         SUNNY     82  63  51 NW16G23   29.77R
WORTHINGTON    MOSUNNY   81  64  57 W12       29.80R
JACKSON        MOSUNNY   82  63  51 NW14G23   29.79R
TRACY          SUNNY     81  70  69 NW15      29.78R
SLAYTON        SUNNY     81  65  58 NW14      29.81R
$$
MNZ065>067-074>077-082>085-091>093-021800-
   South Central Minnesota

CITY           SKY/WX    TMP DP  RH WIND       PRES   REMARKS
MANKATO        SUNNY     82  64  54 W21       29.69S
NEW ULM        SUNNY     82  64  54 W14       29.71R
ST JAMES       SUNNY     84  64  51 W15G28    29.74R
FAIRMONT       SUNNY     84  63  48 W15G21    29.75R
GLENCOE        SUNNY     80  67  64 W15G24    29.67R
FARIBAULT      SUNNY     82  66  57 SW17G23   29.66S
OWATONNA       SUNNY     82  66  57 SW18G24   29.68S
WASECA         SUNNY     79  64  61 W17G23    29.71S
ALBERT LEA     SUNNY     84  68  58 W13G18    29.71F
$$
MNZ078>079-086>088-094>096-021800-
   Southeast Minnesota

CITY           SKY/WX    TMP DP  RH WIND       PRES   REMARKS
ROCHESTER      SUNNY     82  70  66 W23G32    29.68F
RED WING       MOSUNNY   86  64  48 W15       29.59F
STANTON        SUNNY     83  65  56 SW15G22   29.62S
DODGE CENTER   SUNNY     82  70  65 SW15G25   29.68F
WINONA         SUNNY     88  70  55 W6G17     29.63S HX  92
AUSTIN         SUNNY     86  66  51 W16G24    29.70F
PRESTON        SUNNY     83  68  60 SW15G24   29.69F
$$
ABBREVIATIONS USED IN REMARKS
   TC - TEMPERATURES IN CELSIUS
  WCI - WIND CHILL INDEX
   HX - HEAT INDEX
  VSB - VISIBILITY
$$



USA.gov is the U.S. government's official web portal to all federal, state and local government web resources and services.